This is the latest recevied weather packets stored in our database for station/object K5VP. If no packets are shown the sender has not sent any weather packets the latest 1 day(s).
| Time | Temp. | Humidity | Pressure | Rain* | Wind** | Luminosity | Snow |
|---|---|---|---|---|---|---|---|
| 1778045208 | 16.11° C | 91% | 1008.7 hPa | 0 mm | 0.45 m/s, 127° | - | - |
| 1778044841 | 17.22° C | 92% | 1008.8 hPa | 0 mm | 0 m/s | - | - |
| 1778044450 | 18.33° C | 95% | 1008.6 hPa | 0 mm | 0 m/s | - | - |
| 1778044070 | 18.33° C | 95% | 1008.5 hPa | 0 mm | 0 m/s | - | - |
| 1778043691 | 18.33° C | 95% | 1008.4 hPa | 1.02 mm | 0 m/s | - | - |
| 1778043300 | 18.33° C | 95% | 1008.2 hPa | 2.29 mm | 0 m/s | - | - |
| 1778042915 | 18.33° C | 95% | 1007.9 hPa | 10.41 mm | 0 m/s | - | - |
| 1778042538 | 18.33° C | 95% | 1008.1 hPa | 23.37 mm | 0 m/s | - | - |
| 1778042153 | 18.33° C | 95% | 1007.8 hPa | 10.41 mm | 0 m/s | - | - |
| 1778041757 | 18.33° C | 95% | 1007.5 hPa | 0 mm | 0 m/s | - | - |
| 1778041363 | 18.33° C | 95% | 1007.4 hPa | 0 mm | 0 m/s | - | - |
| 1778040982 | 17.78° C | 95% | 1007.4 hPa | 0 mm | 0 m/s | - | - |
| 1778040600 | 17.78° C | 95% | 1007.5 hPa | 0 mm | 0 m/s | - | - |
| 1778040225 | 17.78° C | 95% | 1007.5 hPa | 0 mm | 0 m/s | - | - |
| 1778039849 | 17.78° C | 95% | 1007.6 hPa | 0 mm | 0 m/s | - | - |
| 1778039476 | 17.78° C | 95% | 1007.5 hPa | 0 mm | 0 m/s | - | - |
| 1778039090 | 17.78° C | 95% | 1007.5 hPa | 0 mm | 0 m/s | - | - |
| 1778038713 | 17.78° C | 95% | 1007.7 hPa | 0 mm | 0 m/s | - | - |
| 1778038342 | 17.78° C | 95% | 1007.7 hPa | 0 mm | 0 m/s | - | - |
| 1778037948 | 17.78° C | 95% | 1007.8 hPa | 0 mm | 0 m/s | - | - |
| 1778037575 | 17.78° C | 95% | 1007.8 hPa | 0 mm | 0 m/s | - | - |
| 1778037202 | 17.22° C | 95% | 1007.7 hPa | 0 mm | 0 m/s | - | - |
| 1778036822 | 17.22° C | 95% | 1007.6 hPa | 0 mm | 0 m/s | - | - |
| 1778036427 | 17.22° C | 95% | 1007.6 hPa | 0 mm | 0 m/s | - | - |
| 1778036039 | 17.22° C | 95% | 1007.7 hPa | 0 mm | 0 m/s | - | - |
* Rain latest hour (hover to see other rain measurements)
** Current wind speed in m/s (hover to see current wind gust speed)